Погода в Победе

Россия / Санкт-Петербург и Ленинградская область     60°21′14″N   29°26′21″E
темп.,
°C
ветер,
м/с
пор.,
м/с
влажн.,
%
обл.,
%
осадки,
мм/ч
давл.,
гПа
погр.,
м
1 августа, вс
вс100:00+16зюз310905 0.3 1002375
03:00+16юз499733 0.3 1002411
06:00+16ююз3794100 0.0 1002359
09:00+15ююз1295100 2.2 1001179
12:00+16ююв479575 10.0 1001536
15:00+22юз59545 10.3 10011314
18:00+20юз486996 0.4 10001019
21:00+16зюз49940 1.3 1002458
2 августа, пн
пн200:00+16зюз512918 0.0 1003648
03:00+15зюз41091100 0.1 1003539
06:00+15юз4888100 0.0 1004499
09:00+17юз4773100 0.1 1004715
12:00+20юз3563100 0.0 10041057
15:00+21ююз3461100 0.1 10021060
18:00+17ю2487100 0.8 1002211
21:00+16ююв2493100 1.6 1001111
3 августа, вт
вт300:00+15юз2291100 0.3 100036
03:00+15сз369589 1.7 1000200
06:00+15зюз2491100 1.2 1000102
09:00+17зюз57807 1.8 1001817
12:00+17зюз697178 0.4 10021078
15:00+16з797495 0.6 10041073
18:00+15з5973100 0.1 1006994
21:00+15зсз39645 0.1 1007467
4 августа, ср
ср400:00+12з387545 0.0 1009220
03:00+12сз247149 0.0 101170
06:00+11с117083 0.0 101229
09:00+16зюз12528 0.0 1014323
12:00+20юз34385 0.0 10141963
15:00+20юз44406 0.0 10151872
18:00+19зюз33456 0.0 10161124
21:00+14зюз22688 0.0 101642
5 августа, чт
чт500:00+12зюз007216 0.0 101726
03:00+12вюв117392 0.0 101751
06:00+13вюв228141 0.0 101678
09:00+18вюв225773 0.0 1016354
12:00+20юв334816 0.0 1016719
15:00+22юв234139 0.0 10151277
18:00+21юв244416 0.0 1014664
21:00+17в386753 0.0 1014183